Location: Latina
(41.4670°N, 12.8670°E)
Time: 18:07:02
(UTC+02:00)

ISS - Pass Details

Date: 15 May 2021
Orbit: 417 x 422 km, 51.6° (Epoch: 18 June)

Event Time Altitude Azimuth Distance (km) Brightness Sun altitude
Rises 00:24:56 0° 284° (WNW) 2,365 0.4 -29.0°
Reaches altitude 10° 00:27:34 10° 305° (NW) 1,503 -0.4 -29.1°
Maximum altitude 00:29:52 17° 348° (NNW) 1,150 -0.8 -29.1°
Drops below altitude 10° 00:32:11 10° 32° (NNE) 1,507 -0.4 -29.2°
Sets 00:34:49 0° 53° (NE) 2,374 0.4 -29.3°
